Location: Gwatt
(46.7204°N, 7.6223°E)
Time: 13:31:27
(UTC+00:00)

S-56A Canister/Altair - Pass Details

Date: 25 January 2021
Orbit: 632 x 2501 km, 38.9° (Epoch: 28 February)

Event Time Altitude Azimuth Distance (km) Brightness Sun altitude
Rises 00:28:38 0° 206° (SSW) 3,257 - -60.6°
Reaches altitude 10° 00:32:53 10° 174° (S) 2,111 - -60.3°
Maximum altitude 00:34:29 12° 153° (SSE) 1,952 - -60.2°
Drops below altitude 10° 00:36:02 10° 133° (SE) 2,023 - -60.1°
Sets 00:39:49 0° 99° (E) 2,923 - -59.8°
